Boomer, NC

2:40 AM EDT on August 29, 2016 (GMT -0400)
Wilkes County

Weather History for KUKF - November, 2012

Change the Weather History Date:

Sunday, November 11, 2012

  Actual Average Record
Temperature  
Mean Temperature 50 °F -  
Max Temperature 68 °F 62 °F 80 °F (2006)
Min Temperature 33 °F 34 °F 13 °F (1957)
Degree Days  
Heating Degree Days 14    
Moisture  
Dew Point 39 °F    
Average Humidity 63    
Maximum Humidity 93    
Minimum Humidity 28    
Precipitation  
Precipitation 0.00 in - - ()
Sea Level Pressure  
Sea Level Pressure 30.45 in    
Wind  
Wind Speed 2 mph (South)    
Max Wind Speed 17 mph    
Max Gust Speed 23 mph    
Visibility 10 miles    
Events      
Averages and records for this station are not official NWS values.
T = Trace of Precipitation, MM = Missing Value Source: NWS Daily Summary

Daily Weather History Graph

Daily Weather History Graph

Search for Another Location

Airport or City:

Trip Planner

Search our weather history database for the weather conditions in past years. The results will help you decide how hot, cold, wet, or windy it might be!

Date:

Astronomy

Nov. 11, 2012 Rise Set
Actual Time 6:57 AM EST 5:18 PM EST
Civil Twilight 6:30 AM EST 5:45 PM EST
Nautical Twilight 5:59 AM EST 6:16 PM EST
Astronomical Twilight 5:29 AM EST 6:47 PM EST
Moon 4:13 AM EST (11/11) 3:38 PM EST (11/11)
Length of Visible Light 11h 15m
Length of Day
10h 21m
Waning Crescent, 7% of the Moon is Illuminated
Nov 11
Waning Crescent
Nov 13
New
Nov 20
First Quarter
Nov 28
Full
Dec 6
Last Quarter

Hourly Weather History & Observations

Time (EST) Temp. Dew Point Humidity Pressure Visibility Wind Dir Wind Speed Gust Speed Precip Events Conditions
12:15 AM 41.0 °F 32.0 °F 70% 30.42 in 10.0 mi Calm Calm - N/A   Clear
12:35 AM 41.0 °F 32.0 °F 70% 30.42 in 10.0 mi Calm Calm - N/A   Clear
12:55 AM 39.2 °F 32.0 °F 75% 30.42 in 10.0 mi Calm Calm - N/A   Clear
1:15 AM 42.8 °F 32.0 °F 66% 30.41 in 10.0 mi Calm Calm - N/A   Clear
1:35 AM 42.8 °F 32.0 °F 66% 30.42 in 10.0 mi Calm Calm - N/A   Clear
1:55 AM 41.0 °F 32.0 °F 70% 30.42 in 10.0 mi Calm Calm - N/A   Clear
2:15 AM 37.4 °F 32.0 °F 81% 30.41 in 10.0 mi Calm Calm - N/A   Clear
2:35 AM 37.4 °F 32.0 °F 81% 30.41 in 10.0 mi Calm Calm - N/A   Clear
2:55 AM 37.4 °F 32.0 °F 81% 30.41 in 10.0 mi Calm Calm - N/A   Clear
3:15 AM 35.6 °F 32.0 °F 87% 30.41 in 10.0 mi Calm Calm - N/A   Clear
3:35 AM 35.6 °F 32.0 °F 87% 30.42 in 10.0 mi Calm Calm - N/A   Clear
3:55 AM 35.6 °F 32.0 °F 87% 30.41 in 10.0 mi Calm Calm - N/A   Clear
4:15 AM 35.6 °F 32.0 °F 87% 30.42 in 10.0 mi Calm Calm - N/A   Clear
4:35 AM 35.6 °F 32.0 °F 87% 30.42 in 10.0 mi Calm Calm - N/A   Clear
4:55 AM 37.4 °F 32.0 °F 81% 30.43 in 10.0 mi Calm Calm - N/A   Clear
5:15 AM 35.6 °F 32.0 °F 87% 30.43 in 10.0 mi Calm Calm - N/A   Clear
5:35 AM 33.8 °F 32.0 °F 93% 30.44 in 10.0 mi Calm Calm - N/A   Clear
5:55 AM 33.8 °F 32.0 °F 93% 30.45 in 10.0 mi Calm Calm - N/A   Clear
6:35 AM 33.8 °F 32.0 °F 93% 30.47 in 10.0 mi Calm Calm - N/A   Clear
6:55 AM 33.8 °F 32.0 °F 93% 30.47 in 10.0 mi Calm Calm - N/A   Clear
7:15 AM 33.8 °F 32.0 °F 93% 30.49 in 10.0 mi Calm Calm - N/A   Clear
7:35 AM 35.6 °F 32.0 °F 87% 30.49 in 10.0 mi Calm Calm - N/A   Clear
7:55 AM 35.6 °F 32.0 °F 87% 30.50 in 10.0 mi Calm Calm - N/A   Clear
8:15 AM 39.2 °F 33.8 °F 81% 30.50 in 10.0 mi Calm Calm - N/A   Clear
8:35 AM 42.8 °F 35.6 °F 76% 30.50 in 10.0 mi Calm Calm - N/A   Clear
8:55 AM 44.6 °F 35.6 °F 71% 30.51 in 10.0 mi Calm Calm - N/A   Clear
9:15 AM 48.2 °F 35.6 °F 62% 30.51 in 10.0 mi Calm Calm - N/A   Clear
9:35 AM 51.8 °F 37.4 °F 58% 30.51 in 10.0 mi Calm Calm - N/A   Clear
9:55 AM 53.6 °F 37.4 °F 54% 30.51 in 10.0 mi Calm Calm - N/A   Clear
10:35 AM 57.2 °F 35.6 °F 44% 30.51 in 10.0 mi Calm Calm - N/A   Clear
10:55 AM 60.8 °F 35.6 °F 39% 30.51 in 10.0 mi Calm Calm - N/A   Clear
11:15 AM 62.6 °F 37.4 °F 39% 30.51 in 10.0 mi SSW 4.6 mph - N/A   Clear
11:35 AM 64.4 °F 37.4 °F 37% 30.50 in 10.0 mi SW 6.9 mph - N/A   Clear
11:55 AM 66.2 °F 35.6 °F 32% 30.49 in 10.0 mi South 6.9 mph - N/A   Clear
12:15 PM 66.2 °F 35.6 °F 32% 30.47 in 10.0 mi WSW 10.4 mph 17.3 mph N/A   Clear
12:35 PM 66.2 °F 33.8 °F 30% 30.46 in 10.0 mi South 6.9 mph - N/A   Clear
12:55 PM 68.0 °F 33.8 °F 28% 30.46 in 10.0 mi SSW 11.5 mph - N/A   Clear
1:15 PM 68.0 °F 33.8 °F 28% 30.45 in 10.0 mi South 11.5 mph - N/A   Clear
1:35 PM 68.0 °F 35.6 °F 30% 30.44 in 10.0 mi South 11.5 mph - N/A   Clear
1:55 PM 68.0 °F 37.4 °F 33% 30.44 in 10.0 mi South 8.1 mph 16.1 mph N/A   Clear
2:15 PM 68.0 °F 41.0 °F 37% 30.43 in 10.0 mi SSW 12.7 mph 18.4 mph N/A   Clear
2:35 PM 68.0 °F 42.8 °F 40% 30.43 in 10.0 mi SSW 11.5 mph - N/A   Clear
2:55 PM 68.0 °F 42.8 °F 40% 30.42 in 10.0 mi South 8.1 mph 16.1 mph N/A   Clear
3:15 PM 68.0 °F 44.6 °F 43% 30.43 in 10.0 mi South 17.3 mph 23.0 mph N/A   Clear
3:35 PM 68.0 °F 44.6 °F 43% 30.43 in 10.0 mi SSW 11.5 mph 23.0 mph N/A   Clear
3:55 PM 64.4 °F 44.6 °F 49% 30.43 in 10.0 mi South 13.8 mph 19.6 mph N/A   Clear
4:15 PM 64.4 °F 44.6 °F 49% 30.44 in 10.0 mi South 13.8 mph 21.9 mph N/A   Scattered Clouds
4:35 PM 64.4 °F 44.6 °F 49% 30.44 in 10.0 mi South 9.2 mph 18.4 mph N/A   Mostly Cloudy
4:55 PM 62.6 °F 44.6 °F 52% 30.43 in 10.0 mi South 4.6 mph - N/A   Scattered Clouds
5:15 PM 62.6 °F 44.6 °F 52% 30.43 in 10.0 mi South 5.8 mph - N/A   Mostly Cloudy
5:35 PM 62.6 °F 44.6 °F 52% 30.44 in 10.0 mi South 5.8 mph - N/A   Overcast
5:55 PM 62.6 °F 44.6 °F 52% 30.44 in 10.0 mi South 4.6 mph - N/A   Overcast
6:15 PM 60.8 °F 44.6 °F 55% 30.44 in 10.0 mi South 3.5 mph - N/A   Overcast
6:35 PM 60.8 °F 44.6 °F 55% 30.45 in 10.0 mi Calm Calm - N/A   Scattered Clouds
6:55 PM 60.8 °F 44.6 °F 55% 30.45 in 10.0 mi Calm Calm - N/A   Scattered Clouds
7:15 PM 59.0 °F 44.6 °F 59% 30.45 in 10.0 mi Calm Calm - N/A   Scattered Clouds
7:35 PM 59.0 °F 44.6 °F 59% 30.45 in 10.0 mi Calm Calm - N/A   Clear
7:55 PM 59.0 °F 44.6 °F 59% 30.45 in 10.0 mi Calm Calm - N/A   Scattered Clouds
8:15 PM 55.4 °F 44.6 °F 67% 30.45 in 10.0 mi Calm Calm - N/A   Scattered Clouds
8:35 PM 55.4 °F 44.6 °F 67% 30.45 in 10.0 mi Calm Calm - N/A   Clear
8:55 PM 55.4 °F 44.6 °F 67% 30.46 in 10.0 mi Calm Calm - N/A   Scattered Clouds
9:15 PM 55.4 °F 46.4 °F 72% 30.46 in 10.0 mi ESE 3.5 mph - N/A   Overcast
9:35 PM 55.4 °F 46.4 °F 72% 30.46 in 10.0 mi Calm Calm - N/A   Overcast
9:55 PM 55.4 °F 46.4 °F 72% 30.46 in 10.0 mi Calm Calm - N/A   Overcast
10:15 PM 55.4 °F 46.4 °F 72% 30.46 in 10.0 mi Calm Calm - N/A   Overcast
10:35 PM 55.4 °F 46.4 °F 72% 30.45 in 10.0 mi ESE 3.5 mph - N/A   Overcast
10:55 PM 57.2 °F 46.4 °F 67% 30.45 in 10.0 mi Calm Calm - N/A   Overcast
11:15 PM 55.4 °F 46.4 °F 72% 30.45 in 10.0 mi Calm Calm - N/A   Overcast
11:35 PM 57.2 °F 50.0 °F 77% 30.44 in 10.0 mi South 10.4 mph - N/A   Overcast
11:55 PM 59.0 °F 51.8 °F 77% 30.44 in 10.0 mi South 8.1 mph - N/A   Overcast